Flag for USA

Past Weather in Washington Avenue Historic District, Georgia, USA — Yesterday and Last 2 Weeks

Now
46 °F

Clear.


Feels Like: 41 °F
Forecast: 64 / 40 °F
Wind: 12 mph from Northwest

Location: Fulton County Airport-Brown Field

Current Time: Mar 22, 2019 at 3:06:57 am

Latest Report: Mar 22, 2019 at 1:53 am


Visibility: 10 mi

Pressure: 30.01 "Hg

Humidity: 61%

Dew Point: 33 °F

Location of Washington Avenue Historic DistrictLocation

Past Weather in Washington Avenue Historic District — Graph

°F

Washington Avenue Historic District Temperature Yesterday

Maximum temperature yesterday: 60 °F (at 6:53 pm)
Minimum temperature yesterday: 40 °F (at 5:53 am)
Average temperature yesterday: 51 °F

High & Low Weather Summary for the Past Weeks

 TemperatureHumidityPressure
High75 °F (Mar 14, 4:53 pm)100% (Mar 10, 8:53 am)30.41 "Hg (Mar 10, 8:53 am)
Low29 °F (Mar 7, 3:53 am)12% (Mar 7, 2:53 pm)29.90 "Hg (Mar 21, 6:53 pm)
Average54 °F61%30.16 "Hg
* Reported Mar 7 12:53 am — Mar 22 1:53 am, Washington Avenue Historic District. Weather by CustomWeather, © 2019

Note: Actual official high and low records may vary slightly from our data, if they occured in-between our weather recording intervals... More about our weather records

Advertising

Washington Avenue Historic District Weather History for the Previous 24 Hours

Scroll right to see more
 ConditionsComfort  
Time TempWeatherWind HumidityBarometerVisibility
1:53 am
Fri, Mar 22
46 °FClear.12 mph61%30.01 "Hg10 mi
12:53 am49 °FClear.16 mph61%29.99 "Hg10 mi
11:53 pm
Thu, Mar 21
53 °FClear.14 mph56%29.96 "Hg10 mi
10:53 pm54 °FClear.9 mph51%29.93 "Hg10 mi
9:53 pm55 °FClear.6 mph47%29.93 "Hg10 mi
8:53 pm56 °FClear.6 mph46%29.92 "Hg10 mi
6:53 pm60 °FPartly sunny.12 mph41%29.90 "Hg10 mi
5:53 pm58 °FPassing clouds.6 mph46%29.90 "Hg10 mi
4:53 pm59 °FScattered clouds.16 mph44%29.90 "Hg10 mi
3:53 pm58 °FPartly sunny.20 mph47%29.92 "Hg10 mi
2:53 pm57 °FMostly cloudy.20 mph51%29.92 "Hg10 mi
1:53 pm56 °FOvercast.16 mph58%29.93 "Hg10 mi
12:53 pm57 °FBroken clouds.17 mph51%29.93 "Hg10 mi
11:53 am56 °FScattered clouds.13 mph53%29.94 "Hg10 mi
10:53 am56 °FPassing clouds.13 mph55%29.94 "Hg10 mi
9:53 am52 °FPassing clouds.12 mph64%29.94 "Hg10 mi
8:53 am46 °FPartly sunny.No wind71%29.95 "Hg8 mi
7:53 am46 °FMostly cloudy.No wind66%29.94 "Hg10 mi
6:53 am45 °FOvercast.3 mph68%29.95 "Hg10 mi
5:53 am40 °FPassing clouds.No wind86%29.95 "Hg10 mi
4:53 am44 °FClear.3 mph71%29.96 "Hg10 mi
3:53 am44 °FPassing clouds.No wind73%29.98 "Hg10 mi
Weather by CustomWeather, © 2019

See weather overview